Terminal Aerodrome Forecast
Issued by NWS Milwaukee/Sullivan, WI

Home | Current Version | Previous Version | Text Only | Print | Product List | Glossary On
Versions: 1 2 3 4 5 6 7 8 9 10 11 12 13 14 15 16 17 18 19 20 21 22 23 24 25 26 27 28 29 30 31 32 33 34 35 36 37 38 39 40 41 42 43 44 45 46 47 48 49 50
000
FTUS43 KMKX 041331 AAC
TAFMKE
TAF AMD
KMKE 041331Z 0414/0518 26004KT P6SM OVC011
     FM041600 03005KT 6SM BR BKN015
     FM041800 03005KT P6SM SCT030
     FM042100 08007KT P6SM SCT040
     FM050600 VRB03KT 3SM BR SCT120
     FM051200 VRB03KT P6SM SCT120=

USA.gov is the U.S. government's official web portal to all federal, state and local government web resources and services.